Regional Weather Roundup
Issued by NWS

Home | Current Version | Previous Version | Graphics & Text | Print | Product List | Glossary On
Versions: 1 2 3 4 5 6 7 8 9 10 11 12 13 14 15 16 17 18 19 20 21 22 23 24 25 26 27 28
000
ASUS45 KBOI 262010
RWRID

IDAHO REGIONAL WEATHER ROUNDUP
NATIONAL WEATHER SERVICE BOISE ID
200 PM MDT SAT MAY 26 2018

NOTE: "FAIR" INDICATES FEW OR NO CLOUDS BELOW 12000 FEET
WITH NO SIGNIFICANT WEATHER AND/OR OBSTRUCTIONS TO VISIBILITY

IDZ012-014-262100-
SOUTHWEST IDAHO


CITY           SKY/WX    TMP DP  RH WIND       PRES   REMARKS
BOISE          PTSUNNY   70  51  51 NW20G30   29.85F
CALDWELL       MOSUNNY   73  50  44 W17       29.87F
$$

IDZ016-017-262100-
SOUTHCENTRAL IDAHO


CITY           SKY/WX    TMP DP  RH WIND       PRES   REMARKS
BURLEY         MOSUNNY   72  47  40 NW7       29.85F
JEROME         MOSUNNY   69  47  45 W14G23    29.87F
TWIN FALLS     MOSUNNY   69  47  45 W16G23    29.88F
$$

IDZ019>023-262100-
SOUTHEAST IDAHO


CITY           SKY/WX    TMP DP  RH WIND       PRES   REMARKS
IDAHO FALLS    SUNNY     71  46  40 SW12      29.88F
POCATELLO      MOSUNNY   72  46  39 VRB7G17   29.87F
REXBURG        SUNNY     70  46  42 SW9       29.88F
$$

IDZ006-010-011-018-031-032-262100-
CENTRAL IDAHO MOUNTAINS


CITY           SKY/WX    TMP DP  RH WIND       PRES   REMARKS
MCCALL         SUNNY     63  49  60 W16G22    29.90F
HAILEY         MOSUNNY   66  52  59 E10       29.90F
STANLEY          N/A     58  40  51 CALM      29.94F
SALMON         MOSUNNY   73  47  39 N5        29.79F
CHALLIS        PTSUNNY   71  46  40 N8        29.81F
$$

IDZ002-004-006-007-026-262100-
NORTHERN IDAHO


CITY           SKY/WX    TMP DP  RH WIND       PRES   REMARKS
LEWISTON       CLOUDY    63  53  70 NE6       29.99S
LOWELL           N/A     63  56  78 E8        29.96S
COEUR D`ALENE  SUNNY     66  45  46 S14       29.97
MULLAN PASS    LGT RAIN  45  44  97 VRB3      30.04R VSB<1/4
$$




USA.gov is the U.S. government's official web portal to all federal, state and local government web resources and services.